Regional Weather Roundup
Issued by NWS

Home | Current Version | Previous Version | Text Only | Print | Product List | Glossary Off
Versions: 1 2 3 4 5 6 7 8 9 10 11 12 13 14 15 16 17 18 19 20 21 22 23 24 25 26 27 28 29 30 31 32 33 34 35 36 37 38 39 40 41 42 43 44 45 46 47 48 49 50

000
ASUS43 KBIS 270910
RWRND

NORTH DAKOTA REGIONAL WEATHER ROUNDUP
NATIONAL WEATHER SERVICE BISMARCK ND
400 AM CDT TUE SEP 27 2016

NOTE: "FAIR" INDICATES FEW OR NO CLOUDS BELOW 12,000 FEET WITH NO
SIGNIFICANT WEATHER AND/OR OBSTRUCTIONS TO VISIBILITY.


NDZ001>003-009>011-017-271000-
NORTHWEST NORTH DAKOTA

CITY           SKY/WX    TMP DP  RH WIND       PRES   REMARKS
WILLISTON      CLEAR     40  36  86 CALM      30.03F
MINOT          CLEAR     43  37  79 SW8       30.01F
MINOT AFB      CLEAR     39  36  87 W8        30.00F
$$

NDZ018>021-031>035-040>046-271000-
SOUTHWEST NORTH DAKOTA

CITY           SKY/WX    TMP DP  RH WIND       PRES   REMARKS
BISMARCK       CLEAR     41  37  86 W3        30.03F
DICKINSON      CLEAR     42  37  82 W6        30.04F
GARRISON         N/A     39  36  89 N3        30.03F
HETTINGER ARPT CLEAR     40  37  89 CALM      30.09F
$$

NDZ004>008-012>016-024-026-027-054-271000-
NORTHEAST NORTH DAKOTA

CITY           SKY/WX    TMP DP  RH WIND       PRES   REMARKS
GRAND FORKS    CLEAR     40  36  86 W7        29.91F
GRND FRKS AFB  CLEAR     44  36  74 NW8       29.92F
DEVILS LAKE    CLEAR     40  37  89 NW7       29.98S
$$

NDZ022-023-025-028>030-036>039-047>053-271000-
SOUTHEAST NORTH DAKOTA

CITY           SKY/WX    TMP DP  RH WIND       PRES   REMARKS
FARGO          CLEAR     40  33  76 W5        29.92F
JAMESTOWN      CLEAR     42  36  79 W8        29.98S
$$




USA.gov is the U.S. government's official web portal to all federal, state and local government web resources and services.